www.pogodaiklimat.ru

Погода и климат >> Архив погоды >> Россия >> Нижегородская область >> Лысково


ПОГОДА в Лысково

  • Прогноз погоды в Лысково
  • Монитор погоды в Лысково

АРХИВ ПОГОДЫ в Лысково

Время (UTC), дата Ветер
(напр.,м/с)
 
Видим.   Явления Облачность Т
(С)
Тd
(С)
f
(%)
Тe
(С)
Тes
(С)
Комфортность P
(гПа)
Po
(гПа)
Тmin
(С)
Tmax
(С)
R
(мм)
R24
(мм)
S
(см)
18 14.05 штиль 0
{4}
20 км в посл. час ливневой дождь {гроза} 9/4 300 м
[Cb cap Ac trans Cs]
+17.1 +15.4 90 +17 +17 1014.5 1000.0
21 14.05 Ю 1-2
{4}
4000 м дымка 6/1 600 м
[Sc Ac trans Ci sp]
+14.7 +13.6 93 +15 +15 1014.2 999.5
00 15.05 Ю 1-1
{2}
4000 м дымка 9/1 600 м
[Sc Ci sp]
1014.5 999.7
03 15.05 З 1-1
{2}
10 км 4/1 600 м
[Sc Ci fib]
+15.0 +13.7 92 +15 +17 1014.3 999.6 +12.3 1
06 15.05 С 1-4
{4}
10 км 3/0
[Ac trans Cc]
+20.5 +15.7 74 +25 +34 комфорт 1014.9 1000.5
09 15.05 В 1-2
{4}
20 км 5/5 600 м
[Cb cap]
+25.1 +15.6 56 +28 +37 жарко 1014.4 1000.3
12 15.05 Ю 1-2
{4}
20 км гроза без осадков 8/8 300 м
[Cb cap]
+26.4 +16.0 53 +30 +32 душно 1013.6 999.5
15 15.05 З 2-4
{6}
10 км гроза, ливневой дождь 10/10 300 м
[Cb cap]
+17.4 +15.0 86 +18 +18 1015.6 1001.1 +27.2 4
18 15.05 ЮЗ 1-2
{4}
10 км слаб. ливневой дождь {гроза} 9/9 300 м
[Cb cap]
+15.2 +13.6 90 +16 +16 1015.9 1001.2
21 15.05 ЮЗ 1-2
{3}
10 км {ливн. осадки} 10/10 600 м
[Cb cap]
+14.6 +13.5 93 +15 +15 1015.3 1000.6
00 16.05 З 2-3
{3}
10 км {ливн. осадки} 9/9 300 м
[Cb cap]
+15.3 +14.2 93 +15 +15 1014.9 1000.3
03 16.05 З 2-4
{4}
4000 м слаб. дождь 10/10 200 м
[Frnb]
+15.2 +14.5 96 +15 +15 1015.0 1000.4 +14.1 5
06 16.05 С 3-6
{6}
4000 м слаб. дождь 10/10 200 м
[Frnb]
+13.9 +13.1 95 +13 +13 1016.4 1001.7 +13.8
09 16.05 С 3-8
{8}
20 км {дождь} 9/9 300 м
[Frnb]
+16.0 +12.2 78 +16 +17 1017.7 1003.0
12 16.05 СВ 3-6
{8}
20 км {дождь} 9/9 600 м
[Sc]
+17.1 +11.0 67 +17 +18 1018.1 1003.7
15 16.05 С 2-4
{7}
20 км 8/6 600 м
[Sc Ac trans]
+16.4 +7.8 57 +17 +17 1018.8 1004.1 +18.1 16
18 16.05 СЗ 1-2
{6}
20 км 8/5 600 м
[Sc Ac trans]
+13.1 +4.3 55 +13 +13 1020.5 1005.6
21 16.05 С 2-5
{8}
20 км 3/0
[Ac trans]
+9.7 +2.7 62 +8 +8 1022.0 1006.9
00 17.05 С 2-3
{5}
20 км ясно +6.4 +2.0 73 +4 +4 1022.9 1007.6
03 17.05 СЗ 1-3
{3}
20 км ясно +7.4 +1.7 67 +7 +9 1024.2 1008.9 +5.2
06 17.05 СЗ 2-5
{6}
20 км 8/8 600 м
[Cu Sc]
+11.6 +0.2 45 +11 +13 1023.9 1008.8
09 17.05 СЗ 2-5
{7}
20 км 8/8 600 м
[Cu Sc]
+12.9 -1.7 36 +13 +15 1022.6 1007.6
12 17.05 З 4-8
{8}
20 км 5/5 600 м
[Cu Sc]
+15.5 -0.7 33 +15 +18 1020.5 1005.7
15 17.05 З 3-6
{8}
20 км ясно +15.5 -2.7 28 +15 +17 1019.3 1004.5 +16.0
18 17.05 ЮЗ 1-2
{6}
20 км ясно +10.8 +0.9 50 +11 +11 1018.6 1003.6
21 17.05 ЮЗ 2-4
{4}
20 км ясно +8.6 +1.9 63 +7 +7 1017.1 1002.1
00 18.05 ЮЗ 2-3
{5}
20 км 9/9 600 м
[Sc]
+9.6 +2.5 61 +8 +8 1015.8 1000.8
03 18.05 З 3-5
{6}
20 км 4/4 600 м
[Sc]
+11.5 +3.4 57 +10 +11 1015.5 1000.6 +8.2
06 18.05 СЗ 4-10
{10}
20 км 1/1 600 м
[Sc diur, vesp]
+14.2 -0.5 36 +13 +19 1015.0 1000.2
09 18.05 З 4-9
{11}
20 км 4/1 600 м
[Sc diur, vesp Ci fib]
+15.2 -0.2 35 +14 +23 1014.7 1000.0
12 18.05 З 6-10
{10}
20 км 6/1 600 м
[Sc diur, vesp Ci fib]
+15.8 -1.4 31 +15 +18 1013.7 999.0
15 18.05 СЗ 3-7
{11}
20 км 4/3 600 м
[Sc Ac trans]
+15.3 -2.2 30 +15 +16 1013.4 998.7 +16.2
18 18.05 З 1-3
{9}
20 км 8/6 600 м
[Sc Ac trans]
+11.9 -0.7 42 +12 +12 1013.2 998.3
21 18.05 СЗ 3-5
{6}
20 км слаб. дождь 10/8 300 м
[Frnb Ac As]
+11.0 +0.2 47 +10 +10 1013.3 998.4
00 19.05 С 2-4
{9}
20 км {дождь} 6/6 600 м
[Cb cap]
+6.7 +1.2 68 +5 +5 1014.5 999.3
03 19.05 С 2-4
{5}
20 км 1/1 600 м
[Cu hum]
+6.2 +0.3 66 +4 +6 1015.0 999.8 +4.6 0.0
06 19.05 СЗ 4-8
{10}
20 км 9/9 600 м
[Sc]
+7.8 -3.8 44 +5 +6 1015.3 1000.2
09 19.05 СЗ 4-8
{10}
20 км 9/9 600 м
[Sc]
+9.7 -3.3 40 +8 +9 1015.3 1000.3
12 19.05 С 4-8
{9}
20 км 8/8 600 м
[Sc]
+10.1 -3.8 37 +8 +9 1016.0 1001.0
15 19.05 С 3-7
{8}
20 км 9/9 600 м
[Sc]
+9.9 -3.3 39 +8 +9 1017.4 1002.4 +11.4
18 19.05 штиль 0
{7}
20 км 1/1 600 м
[Sc]
+6.3 -0.2 63 +6 +6 1019.0 1003.7
21 19.05 Ю 1-2
{2}
20 км ясно +1.8 -0.1 87 0 0 1019.5 1003.9
00 20.05 ЮЗ 1-2
{2}
20 км 3/1 600 м
[Sc Cc]
+2.5 +0.1 84 +1 +1 1020.0 1004.5
03 20.05 З 2-4
{4}
20 км 8/5 600 м
[Sc Ac trans]
+4.8 +0.4 73 +2 +3 1021.0 1005.7 +1.5
06 20.05 СЗ 3-6
{7}
20 км 4/1 600 м
[Sc Ac trans Cc]
+10.7 -0.2 47 +9 +15 1020.5 1005.5
09 20.05 СЗ 3-7
{8}
20 км 10/10 600 м
[Cb cap]
+11.3 -1.4 41 +10 +10 1020.3 1005.3
12 20.05 СЗ 4-7
{9}
20 км 9/9 600 м
[Cb cap]
+12.8 -3.3 32 +11 +12 1020.2 1005.3
15 20.05 З 2-4
{9}
20 км 8/8 600 м
[Sc]
+13.7 -1.7 34 +14 +14 1019.7 1004.8 +13.8
18 20.05 Ю 1-2
{4}
20 км 3/3 600 м
[Sc]
+5.5 +2.3 80 +4 +4 1020.5 1005.2
21 20.05 Ю 1-2
{2}
20 км ясно +2.9 +0.8 86 +1 +1 1021.0 1005.6
00 21.05 Ю 1-2
{2}
20 км 3/3 600 м
[Sc]
+2.2 +0.6 89 0 0 1021.5 1006.0
03 21.05 штиль 0
{2}
20 км 3/0
[Ci fib]
+7.0 +1.9 70 +6 +9 1021.9 1006.7 +1.1
06 21.05 З 3-6
{7}
20 км 1/0
[Ci fib]
+14.4 +1.9 43 +14 +22 1021.3 1006.5
09 21.05 СЗ 3-8
{9}
20 км 6/0
[Ci fib]
+16.8 -3.0 26 +17 +28 1020.3 1005.6
12 21.05 З 3-5
{8}
20 км 9/9 600 м
[Sc]
+18.9 -0.5 27 +19 +20 1018.9 1004.3
15 21.05 СЗ 1-3
{9}
20 км 8/3 600 м
[Sc Ac lent Cc]
+17.2 -0.9 29 +18 +19 1017.9 1003.2 +19.2

 

Местоположение метеостанции Лысково (Нижегородская область, Россия): широта 56.01 долгота 45.03 высота над уровнем моря 124 м.

В архиве по умолчанию представлена погода в Лысково за последнюю неделю. Архивные данные за месяц целиком и за предыдущие месяцы, начиная с января 2011 года, Вы можете получить, выбрав интересующий диапазон дат из раскрывающегося списка и нажав кнопку "Ввод!".


*Определитесь, кто Вы:
робот инопланетянин человек

Внимание! Время в таблицах - всемирное. Для получения местного времени необходимо прибавить поправку, которая равна 3 ч.

Смотрите также архив погоды в соседних городах и на ближайших метеорологических станциях:

Погода в Сергаче (Нижегородская область, Россия) (61 км)
Погода в Дальнем Константиново (Нижегородская область, Россия) (64 км)
Погода в Нижнем Новгороде (Нижегородская область, Россия) (70 км)
Погода в Нижнем Новгороде аэропорт (Нижегородская область, Россия) (82 км)
Погода в Семенове (Нижегородская область, Россия) (86 км)
Погода в Воскресенском (Нижегородская область, Россия) (92 км)
Погода в Козьмодемьянске (Марий-Эл, Россия) (102 км)
Погода в Арзамасе (Нижегородская область, Россия) (106 км)
Погода в Большом Болдино (Нижегородская область, Россия) (112 км)
Погода в Лукоянове (Нижегородская область, Россия) (114 км)

Пояснения к столбцам:

Ветер - указаны скорость ветра в м/с - средняя за 10 мин, порывы в срок и между сроками (в фигурных скобках) и направление, откуда дует ветер: С - северный, СВ - северо-восточный, В - восточный, ЮВ - юго-восточный, Ю - южный, ЮЗ - юго-западный, З - западный, СЗ - северо-западный.
Видимость - горизонтальная дальность видимости в метрах или километрах. При видимости от 1 до 10 км при отсутствии осадков обычно наблюдается дымка, при ухудшении видимости до 1 км и менее - туман. В сухую погоду видимость может ухудшаться дымом, пылью или мглою.
Явления - указаны атмосферные явления, наблюдавшиеся в срок или в последний час перед сроком; фигурными скобками обозначены явления, наблюдавшиеся между сроками (за 1-3 часа до срока); квадратными скобками обозначены град или гололедные отложения с указанием их диаметра в мм.
Облачность - указаны через наклонную черту общая и нижняя облачность в баллах и высота нижней границы облаков в метрах; квадратными скобками обозначены формы облаков: Ci - перистые, Cs - перисто-слоистые, Cc - перисто-кучевые, Ac - высококучевые, As - высокослоистые, Sc - слоисто-кучевые, Ns - слоисто-дождевые, Cu - кучевые, Cb - кучево-дождевые. Подробнее классификацию облаков см. в Атласе облаков (PDF).
T - Температура воздуха - температура, измеренная на высоте 2 м над землей.
Td - Температура точки росы - температура, при понижении до которой содержащийся в воздухе водяной пар достигнет насыщения.
f - Относительная влажность воздуха - влажноcть воздуха, измеренная на высоте 2 м над землей.
Te - Эффективная температура - температура, которую ощущает одетый по сезону человек в тени. Характеристика душности погоды. При расчете учитывается влияние влажности воздуха и скорости ветра на теплоощущения человека.
Tes - Эффективная температура на солнце - температура, которую ощущает человек, с поправкой на солнечный нагрев. Характеристика знойности погоды. Зависит от высоты солнца над горизонтом, облачности и скорости ветра. Ночью, в пасмурную погоду, а также при ветре 12 м/с и более поправка равна нулю.
P - Атмосферное давление - приведенное к уровню моря атмосферное давление.
Po - Атмосферное давление - измеренное на уровне метеостанции атмосферное давление.
Tmin - Минимальная температура - минимум температуры воздуха на высоте 2 м над землей.
Tmax - Максимальная температура - максимум температуры воздуха на высоте 2 м над землей.
R - Количество осадков - Количество выпавших осадков за период времени, мм. При наведении курсора мыши на число - период времени, за который выпало указанное количество осадков.
R24 - Количество осадков - Количество выпавших осадков за 24 часа, мм.
S - Снежный покров - Высота снежного покрова, см. При наведении курсора мыши на число - состояние снежного покрова и степень покрытия местности в баллах.